Find OTC-P1-8

NORAD ID: 63358 Int'l Des: 2025-061 Owner: ORORA Country: D operational
LEOCIRCULARRETROGRADESSO

Current View

Loading 3D Globe...

About OTC-P1-8

Description loading...

Upcoming Passes

Passes for default location (London). Set your location on the main map for personalized predictions.

Altitude History

Loading altitude history...

Two-Line Element Set

1 63358U 25061H 26151.49521832 .00005288 00000-0 29287-3 0 9992
2 63358 97.5603 127.3150 0015545 320.5397 39.4701 15.14153703 65099
Epoch: May 31, 2026 • Age: 11 hours

Current Status

Altitude 536.9 km
Velocity 7.60 km/s
Sub-Earth Point 62.27°N, 125.19°W
Launch Date Mar 26, 2025
Age 1.1 years
Type other

Technical Details

Classification Payload
Mass 15.00 kg
Dry Mass 15.00 kg
Total Mass 15.00 kg
Length 0.30 m
Diameter 0.20 m
Span 0.40 m
Shape Box+2 pan
Manufacturer SPIREG
Bus Type Cubesat 6U
Phase Status In Orbit
Owner/State ORORA/D

Most Searched